{"data":{"norad_id":59017,"epoch":"2026-05-25T04:32:38.141376Z","epoch_age_seconds":52450,"freshness":"FRESH","line1":"1 59017U 24036V   26145.18933034  .00000361  00000+0  21813-4 0  9994","line2":"2 59017  53.1614  68.7452 0001256  81.3875 278.7270 15.34391476127233","mean_motion":15.34391476,"eccentricity":0.0001256,"inclination_deg":53.1614,"raan_deg":68.7452,"arg_perigee_deg":81.3875,"mean_anomaly_deg":278.727,"bstar":2.1813e-5,"rev_number":12723,"period_min":93.848279433481,"perigee_km":461.86936273247,"apogee_km":463.58778816502,"semimajor_km":6840.8655754487,"source":"CELESTRAK","updated_at":"2026-05-25T13:38:18.821319Z"}}